This is the latest recevied weather packets stored in our database for station/object KF6FPU-15. If no packets are shown the sender has not sent any weather packets the latest 10 day(s).
| Time | Temp. | Humidity | Pressure | Rain* | Wind** | Luminosity | Snow |
|---|---|---|---|---|---|---|---|
| 1777689709 | 27.22° C | 20% | 1010.7 hPa | - | - | - | - |
| 1777689109 | 25.56° C | 20% | 1010.6 hPa | - | - | - | - |
| 1777688509 | 25.56° C | 20% | 1010.6 hPa | - | - | - | - |
| 1777687909 | 25.56° C | 20% | 1010.6 hPa | - | - | - | - |
| 1777687309 | 25.56° C | 20% | 1010.5 hPa | - | - | - | - |
| 1777686709 | 26.11° C | 20% | 1010.4 hPa | - | - | - | - |
| 1777685509 | 25° C | 20% | 1010.6 hPa | - | - | - | - |
| 1777684909 | 25.56° C | 20% | 1010.5 hPa | - | - | - | - |
| 1777684309 | 26.11° C | 20% | 1010.4 hPa | - | - | - | - |
| 1777683710 | 26.11° C | 20% | 1010.5 hPa | - | - | - | - |
| 1777683109 | 26.11° C | 20% | 1010.4 hPa | - | - | - | - |
| 1777682510 | 26.11° C | 20% | 1010.5 hPa | - | - | - | - |
| 1777681910 | 26.11° C | 20% | 1010.5 hPa | - | - | - | - |
| 1777681309 | 26.11° C | 20% | 1010.5 hPa | - | - | - | - |
| 1777680709 | 26.67° C | 20% | 1010.5 hPa | - | - | - | - |
| 1777680110 | 25.56° C | 20% | 1010.6 hPa | - | - | - | - |
| 1777678909 | 25.56° C | 20% | 1010.9 hPa | - | - | - | - |
| 1777678309 | 26.11° C | 20% | 1010.9 hPa | - | - | - | - |
| 1777677710 | 27.22° C | 20% | 1011 hPa | - | - | - | - |
| 1777677110 | 27.78° C | 19% | 1011.1 hPa | - | - | - | - |
| 1777676510 | 28.33° C | 19% | 1011.1 hPa | - | - | - | - |
| 1777675910 | 27.78° C | 19% | 1011.3 hPa | - | - | - | - |
| 1777675309 | 27.78° C | 19% | 1011.5 hPa | - | - | - | - |
| 1777674710 | 28.33° C | 19% | 1011.7 hPa | - | - | - | - |
| 1777674110 | 28.89° C | 19% | 1011.9 hPa | - | - | - | - |
* Rain since midnight (hover to see other rain measurements)
** Current wind speed in m/s (hover to see current wind gust speed)